Regional Weather Roundup
Issued by NWS

Home | Current Version | Previous Version | Graphics & Text | Print | Product List | Glossary On
Versions: 1 2 3 4 5 6 7 8 9 10 11 12 13 14 15 16 17 18 19 20 21 22 23 24 25 26 27 28 29 30 31 32 33 34 35 36 37 38 39 40 41 42 43 44 45 46 47 48 49 50
000
ASUS43 KTOP 130608
RWRKS

WEATHER ROUNDUP FOR KANSAS
NATIONAL WEATHER SERVICE GOODLAND KS
100 AM CDT SUN JUL 13 2014

NOTE:  "FAIR" INDICATES FEW OR NO CLOUDS BELOW 12,000 FEET WITH NO
SIGNIFICANT WEATHER AND/OR OBSTRUCTIONS TO VISIBILITY.

KSZ001>006-013>018-027>032-041>047-130700-
NORTHWEST KANSAS

CITY           SKY/WX    TMP DP  RH WIND       PRES   REMARKS
GOODLAND       CLOUDY    70  66  87 E3        30.22R
6HR MIN TEMP:  69; 6HR MAX TEMP:  85;

HAYS           PTCLDY    73  64  73 N10       30.05S
HILL CITY      PTCLDY    74  67  78 N7        30.10R
6HR MIN TEMP:  74; 6HR MAX TEMP:  89;

RUSSELL        PTCLDY    76  70  82 N14       30.02R
6HR MIN TEMP:  76; 6HR MAX TEMP:  93;

$$

KSZ061>065-074>080-084>089-130700-
SOUTHWEST KANSAS

CITY           SKY/WX    TMP DP  RH WIND       PRES   REMARKS
DODGE CITY     PTCLDY    75  67  76 N9        30.10R
6HR MIN TEMP:  75; 6HR MAX TEMP:  92;

ELKHART          N/A     73  56  55 NW20        N/A
GARDEN CITY    CLOUDY    75  69  81 NE8       30.13R
6HR MIN TEMP:  75; 6HR MAX TEMP:  85;

GREAT BEND     PTCLDY    75  64  69 S8        30.00S
LIBERAL        MOCLDY    79  59  50 SW7       30.14R
PRATT          CLOUDY    77  63  61 S7        30.05R
$$

KSZ066>073-081>083-090>101-130700-
SOUTHEAST KANSAS

CITY           SKY/WX    TMP DP  RH WIND       PRES   REMARKS
CHANUTE        CLEAR     76  65  68 S10       30.01F
6HR MIN TEMP:  76; 6HR MAX TEMP:  90;

COFFEYVILLE    CLEAR     76  66  71 S8        30.01F
6HR MIN TEMP:  76; 6HR MAX TEMP:  91; 6HR PCP: TRACE;

HUTCHINSON     MOCLDY    81  60  48 S10       29.99F
6HR MIN TEMP:  78; 6HR MAX TEMP:  93;

MEDICINE LODGE   N/A     77  61  57 S9        30.02S
NEWTON         PTCLDY    81  54  39 S17G23    30.03F
PARSONS        CLEAR     75  65  70 S5        30.03F
6HR MIN TEMP:  75; 6HR MAX TEMP:  89;

WICHITA INTL   PTCLDY    75  60  59 S10       30.00F
6HR MIN TEMP:  74; 6HR MAX TEMP:  91;

WICHITA JABRA  CLEAR     79  59  50 S13       30.00F
6HR MIN TEMP:  76; 6HR MAX TEMP:  91;

WINFIELD       CLEAR     78  60  53 S10       30.03S
6HR MIN TEMP:  77; 6HR MAX TEMP:  91;

$$

KSZ007>012-019>026-033>040-048>060-102>105-130700-
NORTHEAST KANSAS

CITY           SKY/WX    TMP DP  RH WIND       PRES   REMARKS
CONCORDIA      MOCLDY    75  71  87 NE15G21   30.02S
6HR MIN TEMP:  75; 6HR MAX TEMP:  93;

EMPORIA        CLEAR     74  69  85 S10       29.98F
6HR MIN TEMP:  74; 6HR MAX TEMP:  90;

LAWRENCE       CLEAR     82  68  62 S9        29.97R
6HR MIN TEMP:  81; 6HR MAX TEMP:  92;

MANHATTAN      CLOUDY    78  70  76 W3        29.97R
6HR MIN TEMP:  77; 6HR MAX TEMP:  95; 6HR PCP:  0.05;

MARYSVILLE     CLOUDY    72  70  94 N12G17    30.03S THUNDER
OLATHE IND     CLEAR     79  68  69 S13       29.99S
6HR MIN TEMP:  79; 6HR MAX TEMP:  90;

OLATHE EXE     CLEAR     78  68  71 SW10      29.98S
6HR MIN TEMP:  78; 6HR MAX TEMP:  88;

SALINA         CLOUDY    84  66  54 SW6       29.98R
6HR MIN TEMP:  82; 6HR MAX TEMP:  96;

TOPEKA BILLARD PTCLDY    83  69  62 S12       29.96R
6HR MIN TEMP:  83; 6HR MAX TEMP:  94;

TOPEKA FORBES  CLEAR     80  68  66 S10       29.97R
6HR MIN TEMP:  80; 6HR MAX TEMP:  92;

$$



USA.gov is the U.S. government's official web portal to all federal, state and local government web resources and services.